Home > Weather > Singapore > Past weeks

Flag for Singapore Weather for the Past 2 Weeks in Singapore, Singapore

Now
84 °F

Partly sunny.


Feels Like: 96 °F
Forecast: 81 / 89 °F
Wind: No wind

Location: Singapore / Paya Lebar

Current Time: May 7, 2016 at 8:46:06 AM

Latest Report: May 7, 2016 at 8:00 AM


Visibility: 4 mi

Pressure: 29.74 "Hg

Humidity: 84%

Dew Point: 79 °F

Location of SingaporeLocation

Historic Weather in Singapore — Graph

°F

Singapore Temperature Yesterday

Maximum temperature yesterday: 93 °F (at 12:00 PM)
Minimum temperature yesterday: 82 °F (at 6:00 AM)
Average temperature yesterday: 88 °F

High & Low Weather Summary for the Past Weeks

 TemperatureHumidityPressure
High97 °F (May 3, 3:00 PM)94% (Apr 24, 7:00 AM)29.86 "Hg (Apr 24, 7:00 AM)
Low79 °F (Apr 25, 7:00 AM)39% (May 3, 3:00 PM)29.68 "Hg (Apr 24, 5:00 PM)
Average86 °F75%29.78 "Hg
* Reported Apr 22 7:00 AM — May 7 7:00 AM, Singapore, Weather by CustomWeather, © 2016

Note: Actual official high and low records may vary slightly from our data, if they occured in-between our weather recording intervals... More about our weather records

Advertising

Singapore Weather History for the Previous 24 Hours

Scroll right to see more
 ConditionsComfort  
Time TempWeatherWind HumidityBarometerVisibility
7:00 AM
Sat, May 7
82 °FPartly sunny.No wind89%29.74 "HgN/A
6:00 AM82 °FPassing clouds.No wind89%29.74 "HgN/A
5:00 AM82 °FPassing clouds.No wind89%29.71 "HgN/A
11:00 PM
Fri, May 6
86 °FPassing clouds.No wind79%29.77 "HgN/A
10:00 PM86 °FPassing clouds.No wind79%29.77 "HgN/A
9:00 PM86 °FPassing clouds.2 mph79%29.74 "HgN/A
8:00 PM86 °FPassing clouds.6 mph79%29.74 "HgN/A
7:00 PM88 °FPartly sunny.8 mph70%29.71 "HgN/A
6:00 PM90 °FPartly sunny.3 mph67%29.71 "HgN/A
5:00 PM90 °FPartly sunny.1 mph71%29.71 "HgN/A
4:00 PM88 °FPartly sunny.5 mph75%29.71 "HgN/A
3:00 PM90 °FScattered clouds.7 mph67%29.71 "HgN/A
2:00 PM91 °FBroken clouds.10 mph71%29.74 "HgN/A
1:00 PM93 °FBroken clouds.3 mph63%29.77 "HgN/A
12:00 PM93 °FPartly sunny.7 mph63%29.80 "HgN/A
11:00 AM91 °FPartly sunny.5 mph67%29.83 "HgN/A
10:00 AM90 °FPartly sunny.6 mph75%29.83 "HgN/A
9:00 AM86 °FPartly sunny.3 mph79%29.80 "HgN/A
8:00 AM84 °FPartly sunny.5 mph89%29.77 "HgN/A
Weather by CustomWeather, © 2016

See weather overviewHow to use our weather pages